Location: Newark
(53.2933°N, 6.3959°W)
Time: 09:37:22
(UTC+00:00)

Envisat - Pass Details

Date: 22 February 2020
Orbit: 764 x 766 km, 98.1° (Epoch: 07 April)

Event Time Altitude Azimuth Distance (km) Brightness Sun altitude
Rises 05:30:20 0° 28° (NNE) 3,248 6.8 -18.6°
Reaches altitude 10° 05:34:04 10° 56° (ENE) 2,314 6.4 -18.0°
Maximum altitude 05:36:21 13° 83° (E) 2,110 6.5 -17.7°
Drops below altitude 10° 05:38:38 10° 110° (ESE) 2,305 6.5 -17.3°
Sets 05:42:19 0° 138° (SE) 3,224 6.8 -16.8°
